Tracking 20748 objects as of 4-Jun-2020
HD Live streaming from Space Station
objects crossing your sky now
Track the most recent launched group of Starlink satellites

SL-14 DEB

Track SL-14 DEB now!
10-day predictions


NORAD ID: 26028
Int'l Code: 1991-068AP
Perigee: 1,474.4 km
Apogee: 1,505.0 km
Inclination: 82.7 °
Period: 115.6 minutes
Semi major axis: 7860 km
RCS: 0.0352 m2 (small)
Launch date: September 28, 1991
Source: Commonwealth of Independent States (former USSR) (CIS)
Launch site: PLESETSK MISSILE AND SPACE COMPLEX (PKMTR)

Note: This is SATELLITE DEBRIS
aabbcc
Your satellite tracking list
Your tracking list is empty




NASA's NSSDC Master Catalog

Two Line Element Set (TLE):
1 26028U 91068AP  20155.81123845 +.00000098 +00000-0 +61269-3 0  9991
2 26028 082.6971 186.6130 0019455 345.8621 189.1201 12.45693461959513
Source of the keplerian elements: AFSPC